WESTFORD NEEDLES, 2796

Orbit data source: Space-Track

WESTFORD NEEDLES, 2796 is space debris in LEO originally from a launch on Thu, 09 May 1963 UTC launched from the Air Force Western Test Range (AFWTR). Debris objects in space refer to the collection of defunct objects orbiting the Earth. Examples of debris include non-operational satellites, rocket bodies, and fragments generated from explosions, collisions, or faulty payload assembly.

Loading next visibility...
Identifier
2796, 1963-014AQ
Orbit
LEO
Country
Flag of USUS
Related business
Manufacturer
Unknown
Mission
Spacecraft
Bus & Motor
Unknown
Mass
Unknown
Launch date (UTC)
1963-05-09 (63 years ago)
Launch vehicle
Unknown
Launch site
Air Force Western Test Range (AFWTR)
Object type
Payload
Rocket body
Debris
Shape & HBR
Unknown shape, 0.3 m
Radar Cross Section
Medium (>0.1 m² and <1 m²)

Expand to show TLE details & history
Last TLE update: 2 days ago

TLE from 2 days ago
0 WESTFORD NEEDLES
1 02796U 63014AQ  26174.73677785  .00001211  00000-0  46450+0 0  9991
2 02796  87.1909  85.9047 0572476 157.7304 204.9508  8.68373141925624
Epoch: 2026-06-23T17:40Z
TLE epoch observation values (Epoch: 2026-06-23T17:40:57.606Z)
Latitude
-0.00003°
Longitude
-91.23938°
Altitude
4,146.909 km
Speed
5.991 km/s
True Right ascension
05h 43m 37s
True Declination
0° 00' 00"
Sunlit
Object was in daylight at epoch
Visualization orbit readout
Latitude
Unknown
Longitude
Unknown
Altitude
Unknown
Speed
Unknown
Apparent Right ascension
Unknown
Apparent Declination
Unknown
Sunlit
N/A
Visualization observer readout
Local Sidereal Time
20:52:37
Azimuth
Unknown
Elevation
Unknown
Doppler factor
Unknown
Orbital elements
Apogee altitude
4,190.341 km
Perigee altitude
3,045.822 km
Semi-major axis
9,996.219 km
Eccentricity
0.05725
Inclination
87.1909°
RAAN
85.9047°
Arg. of periapsis
157.7304°
True anomaly
202.35335°
Mean anomaly
204.9508°
Eccentric anomaly
203.63576°
Mean motion
2.17165 °/min
Orbital period
165.77 mins
BSTAR
0.4645
Loading maneuver chart data...
Computing Atmospheric mass density...

Documentation

Showing up to 5 results
|